Wind_Speed
25 25 25 25 24 24 24 23 24 24 24 25 24 24 23 23 24 24 24 24 25 25 25 25 25 26 26 27 27 27 27 26 26 26 25 25 25 25 25 24 24 25 25
23 24 24 23 24 24 23 23 23 23 22 22 22 22 22 22 22 22 22 22 22 23 23 23 23 24 24 24 24 24 24 24 24 23 22 22 22 22 22 22 22 22 21
23 23 24 23 23 23 23 22 21 21 21 21 21 21 21 20 20 21 20 20 19 20 20 21 21 20 20 20 21 21 21 21 21 20 20 19 19 20 20 20 19 19 18
22 23 23 22 21 21 21 20 20 20 20 20 20 19 19 19 19 18 18 17 17 17 17 16 17 17 16 17 18 18 18 18 18 18 17 17 17 17 17 17 17 17 17
20 20 20 20 20 19 19 18 19 19 19 19 18 18 17 17 17 16 15 15 15 15 15 14 14 14 14 14 15 15 15 15 14 15 14 13 13 13 13 13 14 14 15
18 18 18 18 18 17 17 17 17 17 17 17 16 16 15 15 14 13 13 13 13 13 12 11 11 11 11 11 11 12 12 12 12 11 11 10 10 10 10 10 11 11 11
16 15 16 16 15 15 15 15 15 15 15 14 14 13 13 12 11 10 10 10 10 9 9 9 9 8 8 8 7 8 8 9 8 8 8 8 8 7 8 9 10 10 10
13 13 14 14 13 12 12 12 12 12 12 12 11 11 10 9 9 8 8 8 7 7 6 6 6 6 5 5 4 4 5 5 5 5 6 6 6 7 8 9 9 10 10
11 12 11 11 11 10 11 11 11 10 10 10 10 9 8 7 7 7 6 5 5 4 4 4 3 3 2 2 2 2 3 4 4 4 4 3 3 5 6 7 8 8 8
9 9 9 9 8 9 10 10 10 9 8 9 8 8 7 7 6 6 5 5 4 4 4 3 2 0 1 2 3 3 3 3 2 2 1 1 2 3 4 5 6 7 7
7 7 6 6 7 8 8 9 9 9 8 7 7 7 6 6 6 6 5 5 4 3 3 2 2 3 3 4 5 4 3 3 2 2 1 0 1 2 3 4 4 5 6
6 5 6 7 7 8 8 8 8 9 9 8 7 7 7 7 7 6 6 5 4 4 4 4 5 6 6 6 6 5 4 3 3 2 2 1 1 2 3 3 3 4 5
4 4 5 7 7 7 7 7 7 8 8 8 8 7 7 7 7 7 7 7 7 6 7 7 7 7 7 8 8 7 6 6 5 4 3 3 4 4 4 4 4 4 5
3 5 5 6 6 7 7 7 7 7 8 8 9 9 8 7 8 8 8 8 9 9 9 10 9 10 9 9 9 9 8 7 7 7 6 6 6 6 6 6 6 6 7
4 5 5 6 7 7 7 7 7 8 8 9 9 9 9 9 8 8 8 8 9 10 10 10 10 10 10 10 8 8 8 8 8 8 8 9 9 8 8 7 7 8 8
4 5 5 6 6 6 7 7 8 8 8 9 9 10 9 9 9 9 9 9 9 9 10 10 10 10 10 9 9 8 8 7 8 8 9 9 9 8 8 8 8 9 9
4 5 5 5 6 6 6 7 7 7 8 8 9 9 9 9 9 9 9 9 9 9 9 9 9 9 9 8 8 8 8 8 8 8 9 9 9 8 8 8 9 10 11
5 6 5 5 6 6 6 7 7 7 8 8 9 9 9 9 9 9 10 9 9 9 9 9 9 8 8 7 7 7 8 8 8 7 7 8 8 9 9 10 11 12 13
6 6 6 6 6 6 6 7 7 7 7 8 8 8 9 9 9 9 9 9 9 8 9 9 8 8 8 8 7 7 7 7 6 6 7 7 8 10 10 11 12 13 14
6 6 6 6 6 6 6 7 7 7 7 7 7 7 7 7 7 7 7 7 7 7 8 8 8 8 8 8 7 6 6 6 6 6 7 9 10 11 12 13 14 15 17
5 6 6 6 6 6 6 6 6 6 6 6 6 6 6 5 5 6 6 6 6 6 6 6 6 6 6 6 6 6 6 6 7 7 9 10 11 12 14 15 16 18 19
4 5 5 5 5 5 5 5 5 5 5 5 4 5 5 5 5 5 6 5 5 5 4 4 4 4 5 5 5 6 7 8 8 9 10 12 13 14 16 17 18 19 21
4 4 4 4 4 4 3 4 4 4 3 3 3 3 3 3 3 3 3 3 3 3 3 3 4 4 5 6 7 7 9 10 10 11 13 14 15 16 18 19 20 21 22
3 3 4 4 4 3 3 3 3 3 2 2 2 2 1 1 1 1 2 2 2 3 4 5 5 6 7 8 9 10 11 12 13 14 15 17 18 19 20 21 22 24 25
4 3 4 4 4 3 3 3 3 3 3 3 3 3 3 3 3 4 4 4 5 6 7 8 8 9 10 11 12 13 14 15 16 17 18 19 20 21 22 23 25 26 27
4 4 4 5 4 4 4 4 4 4 4 4 4 5 5 6 6 7 8 8 9 9 10 11 12 13 13 14 15 16 17 18 19 20 21 22 23 24 25 26 27 28 29
Wind_Direction
295 296 297 297 297 296 298 296 294 294 293 292 293 291 290 289 288 285 280 276 276 276 275 274 274 273 271 270 268 266 267 269 271 271 273 276 278 278 277 277 278 277 275
296 297 300 297 297 298 297 296 296 296 296 295 295 295 292 292 291 289 285 282 279 277 276 276 275 274 272 269 267 266 265 266 268 269 272 275 277 278 278 278 279 282 278
297 298 299 299 299 299 298 296 296 297 298 299 299 298 296 295 294 292 289 286 283 277 275 275 274 274 272 270 268 265 263 264 267 269 271 274 275 276 276 278 278 278 278
297 298 300 301 302 301 300 299 299 299 299 301 301 300 299 298 297 295 292 288 284 281 279 276 274 272 273 270 266 262 260 262 264 267 269 269 271 274 275 279 277 278 279
300 300 302 303 304 305 304 304 304 303 303 304 302 301 301 301 300 298 294 289 288 286 284 281 280 278 275 271 265 259 258 258 261 263 264 267 271 274 276 280 281 281 280
304 305 305 306 307 307 305 304 306 309 308 307 306 304 304 303 302 301 294 292 292 290 288 284 283 282 278 274 269 260 258 255 255 257 260 267 273 274 277 279 281 283 283
307 307 307 308 309 309 308 309 311 314 315 312 309 308 310 308 305 302 298 298 299 298 290 284 283 280 275 276 271 262 253 246 244 244 249 257 261 268 272 277 282 283 282
311 311 312 312 313 313 314 317 322 324 325 324 320 317 318 316 313 310 309 302 302 303 305 300 290 284 275 272 253 242 234 224 226 238 243 252 261 264 271 278 281 283 281
315 316 318 319 320 321 323 328 330 330 331 332 330 330 331 330 331 331 328 327 326 328 331 327 313 289 263 250 229 214 200 202 218 227 232 245 267 274 280 284 286 285 284
318 322 324 324 326 330 334 336 338 339 337 341 344 345 343 342 342 349 352 348 347 346 342 345 360 53 189 188 170 165 164 162 177 199 212 252 289 302 302 298 299 300 300
324 330 332 337 339 341 346 350 353 355 354 356 3 7 13 17 13 11 8 4 4 359 355 5 52 100 125 140 145 145 152 152 151 150 146 147 329 335 332 324 322 322 319
326 333 338 347 353 356 1 3 6 10 16 18 16 18 27 29 28 34 40 44 48 56 65 80 101 110 110 112 122 126 125 130 136 139 126 84 27 7 2 357 356 357 351
345 351 352 355 3 10 13 16 17 19 23 28 25 26 31 34 39 51 54 57 63 73 79 86 101 108 109 108 105 103 99 97 98 89 74 58 42 38 37 30 21 15 6
1 7 9 14 19 24 28 28 28 29 32 33 35 40 46 53 56 61 67 69 72 75 81 87 91 96 101 107 102 94 88 83 75 70 67 59 54 55 52 46 38 26 13
22 26 31 31 33 33 36 41 45 45 43 45 47 53 59 63 62 69 72 76 77 79 85 87 89 93 94 96 93 90 86 82 75 71 67 65 63 60 57 49 38 26 17
41 41 37 35 38 37 39 46 50 51 54 55 59 61 65 65 64 71 78 82 83 85 90 93 95 94 92 88 84 85 83 76 70 69 66 63 58 53 48 41 33 23 15
41 39 41 45 46 43 42 44 50 57 61 60 61 63 68 68 72 74 79 83 86 89 92 93 93 91 88 83 79 77 74 70 69 70 63 55 47 39 32 26 17 10 4
42 40 41 44 43 42 47 52 59 65 67 67 67 68 72 71 75 78 81 84 88 88 89 87 85 83 82 81 79 74 69 66 64 60 51 40 32 25 17 10 3 357 353
39 38 38 41 45 48 56 60 63 68 68 68 69 72 75 74 76 80 83 85 84 83 81 77 79 79 77 74 72 68 65 59 51 43 32 21 13 8 3 357 353 349 347
40 42 42 43 47 52 58 59 60 64 67 69 70 72 76 77 80 84 85 83 80 79 78 75 71 70 72 70 64 57 50 39 28 17 8 1 356 353 351 348 346 344 343
45 50 51 50 47 50 52 53 55 62 72 76 75 72 72 76 82 84 86 86 83 76 69 67 67 66 60 52 43 35 26 17 8 360 354 351 349 346 344 342 340 339 338
42 47 53 49 45 47 48 49 55 63 72 73 72 72 70 72 78 82 80 74 68 64 63 60 52 41 31 22 15 9 4 358 353 349 345 341 338 337 336 336 335 335 335
31 31 29 27 25 28 32 38 43 47 54 57 64 69 71 70 68 71 67 57 50 44 37 23 9 0 356 352 347 344 342 340 338 336 334 332 331 331 331 331 331 330 330
10 7 6 7 3 1 6 9 14 21 24 18 6 10 23 27 14 359 346 337 332 333 333 332 330 330 329 328 328 328 328 327 326 325 325 325 325 325 325 326 326 326 327
349 344 341 344 343 336 331 328 330 331 327 322 311 308 308 303 297 294 295 298 301 304 306 308 309 311 313 315 316 318 319 319 318 317 318 319 320 321 321 322 323 324 324
332 330 328 327 326 322 318 313 307 307 311 309 302 298 298 298 298 298 295 294 293 294 296 299 301 303 305 306 307 308 310 311 311 312 314 314 315 317 318 319 320 321 321
Height
5794 5792 5789 5787 5784 5782 5780 5778 5775 5773 5771 5769 5767 5765 5763 5761 5760 5758 5757 5757 5757 5757 5758 5758 5758 5759 5759 5760 5762 5763 5765 5767 5768 5770 5771 5772 5773 5773 5774 5774 5774 5774 5775
5789 5787 5784 5781 5779 5777 5774 5772 5770 5768 5766 5763 5761 5759 5757 5755 5754 5753 5752 5751 5750 5750 5750 5750 5751 5751 5752 5753 5754 5756 5758 5760 5762 5763 5764 5765 5766 5767 5767 5768 5768 5768 5769
5784 5782 5779 5776 5774 5771 5769 5766 5764 5762 5760 5758 5756 5753 5752 5750 5748 5747 5746 5745 5744 5744 5744 5744 5744 5745 5745 5746 5748 5749 5751 5753 5755 5757 5759 5760 5760 5761 5762 5762 5762 5763 5763
5779 5777 5774 5772 5769 5767 5764 5762 5760 5757 5755 5753 5751 5749 5747 5745 5744 5742 5740 5740 5739 5739 5739 5739 5739 5740 5740 5741 5742 5744 5746 5748 5750 5752 5753 5754 5755 5756 5757 5757 5758 5758 5758
5774 5772 5769 5767 5765 5762 5760 5758 5756 5753 5751 5749 5746 5745 5743 5741 5739 5738 5736 5736 5735 5734 5734 5734 5735 5735 5736 5736 5738 5739 5742 5743 5746 5747 5749 5750 5751 5752 5753 5753 5754 5754 5754
5769 5767 5765 5763 5761 5758 5756 5754 5752 5749 5747 5745 5743 5741 5739 5737 5735 5734 5733 5732 5731 5731 5731 5731 5732 5732 5732 5733 5734 5736 5738 5740 5742 5743 5745 5746 5747 5748 5749 5750 5750 5751 5751
5766 5763 5761 5759 5757 5755 5753 5751 5749 5746 5744 5741 5740 5738 5736 5734 5733 5731 5731 5730 5729 5729 5729 5729 5730 5730 5730 5731 5732 5733 5735 5737 5739 5741 5742 5743 5744 5746 5747 5747 5747 5748 5748
5762 5760 5759 5757 5755 5752 5750 5748 5746 5744 5742 5739 5737 5736 5734 5732 5731 5730 5729 5729 5728 5728 5728 5728 5728 5728 5729 5729 5730 5732 5733 5735 5737 5738 5740 5741 5742 5743 5744 5745 5745 5745 5745
5760 5758 5756 5755 5753 5751 5749 5747 5745 5742 5740 5738 5736 5734 5733 5731 5730 5729 5728 5728 5728 5728 5728 5728 5728 5728 5728 5729 5730 5731 5733 5734 5736 5737 5738 5739 5741 5741 5741 5742 5742 5742 5742
5758 5757 5755 5753 5751 5750 5748 5746 5744 5742 5740 5738 5736 5734 5732 5731 5730 5729 5728 5728 5728 5728 5728 5728 5728 5728 5729 5729 5731 5732 5733 5735 5736 5737 5738 5739 5739 5740 5740 5740 5740 5740 5740
5757 5755 5754 5752 5751 5749 5747 5745 5744 5742 5740 5738 5736 5735 5733 5732 5731 5730 5729 5729 5729 5729 5729 5729 5729 5729 5730 5731 5732 5733 5734 5735 5736 5737 5738 5739 5739 5739 5739 5739 5739 5739 5738
5756 5755 5754 5752 5751 5749 5747 5746 5744 5742 5741 5739 5738 5736 5735 5734 5732 5731 5730 5730 5730 5730 5730 5730 5730 5731 5731 5732 5733 5734 5735 5736 5737 5738 5738 5739 5739 5739 5739 5738 5738 5738 5737
5756 5755 5753 5752 5751 5749 5748 5746 5745 5743 5742 5740 5739 5738 5736 5735 5734 5733 5732 5732 5732 5732 5732 5732 5733 5733 5734 5735 5736 5736 5737 5737 5738 5739 5739 5739 5739 5739 5739 5738 5738 5737 5737
5756 5755 5754 5753 5751 5750 5749 5747 5746 5745 5743 5742 5740 5739 5738 5737 5736 5736 5735 5735 5735 5735 5735 5735 5736 5736 5737 5737 5738 5738 5739 5740 5740 5740 5740 5740 5740 5739 5739 5739 5738 5738 5737
5756 5756 5755 5753 5752 5751 5750 5748 5747 5746 5745 5743 5742 5741 5740 5740 5739 5738 5738 5738 5738 5738 5738 5739 5739 5740 5740 5740 5741 5741 5742 5742 5742 5742 5741 5741 5741 5740 5740 5739 5739 5738 5737
5758 5757 5756 5755 5754 5753 5751 5750 5749 5748 5746 5745 5744 5743 5743 5743 5742 5741 5741 5741 5742 5742 5742 5742 5743 5743 5743 5743 5743 5744 5744 5744 5744 5744 5743 5743 5743 5742 5741 5740 5739 5738 5736
5759 5758 5757 5756 5755 5754 5753 5752 5751 5750 5749 5748 5747 5746 5746 5745 5745 5745 5745 5745 5745 5745 5745 5745 5745 5746 5746 5746 5746 5746 5746 5746 5746 5746 5746 5745 5744 5743 5742 5741 5739 5738 5736
5760 5759 5759 5758 5757 5755 5754 5753 5752 5751 5751 5750 5750 5749 5749 5749 5748 5748 5748 5748 5748 5748 5748 5748 5748 5748 5748 5748 5748 5748 5748 5748 5748 5748 5747 5746 5745 5744 5742 5741 5739 5737 5735
5762 5761 5760 5759 5758 5757 5756 5755 5754 5754 5753 5753 5753 5752 5752 5752 5752 5752 5751 5752 5752 5752 5751 5751 5751 5751 5751 5751 5751 5750 5750 5750 5749 5749 5748 5747 5745 5744 5742 5740 5738 5736 5733
5764 5763 5762 5761 5760 5759 5759 5758 5757 5756 5756 5755 5755 5755 5755 5755 5755 5755 5755 5755 5755 5754 5754 5754 5754 5753 5753 5753 5753 5752 5752 5751 5750 5749 5748 5747 5745 5743 5741 5739 5736 5734 5731
5765 5765 5764 5763 5762 5762 5761 5760 5759 5759 5758 5758 5757 5757 5757 5757 5757 5757 5757 5757 5757 5757 5756 5756 5756 5756 5755 5755 5754 5753 5752 5751 5750 5749 5748 5746 5744 5742 5739 5737 5734 5731 5728
5767 5766 5766 5765 5764 5764 5763 5762 5762 5761 5760 5760 5760 5759 5759 5759 5759 5759 5759 5759 5758 5758 5758 5758 5758 5757 5757 5756 5755 5754 5753 5751 5750 5748 5746 5744 5742 5740 5737 5734 5731 5728 5724
5769 5768 5768 5767 5766 5765 5765 5764 5763 5763 5762 5762 5761 5761 5761 5761 5761 5761 5760 5760 5760 5760 5759 5759 5759 5758 5757 5756 5755 5753 5752 5750 5748 5747 5744 5742 5740 5737 5734 5731 5728 5724 5720
5770 5769 5769 5768 5767 5766 5766 5765 5765 5764 5764 5763 5763 5763 5762 5762 5762 5762 5761 5761 5761 5760 5760 5759 5758 5757 5756 5755 5753 5752 5750 5748 5746 5744 5742 5739 5736 5733 5730 5727 5723 5720 5716
5771 5770 5769 5768 5768 5767 5766 5766 5765 5765 5764 5764 5763 5763 5763 5762 5762 5762 5761 5761 5760 5760 5759 5758 5757 5756 5754 5753 5751 5749 5748 5745 5743 5741 5738 5735 5732 5729 5726 5722 5718 5714 5710
5771 5770 5769 5768 5768 5767 5766 5766 5765 5765 5764 5764 5763 5763 5762 5762 5761 5761 5760 5760 5759 5758 5757 5756 5754 5753 5751 5750 5748 5746 5744 5742 5739 5736 5733 5730 5727 5724 5720 5717 5713 5708 5704